Voltar ao catálogo

STARLINK-37766

AtivoComunicaçõesSSO
NORAD 69216·PAYLOAD·🇺🇸 United States

Lançado May 26, 2026 de Vandenberg Space Force Base

Loading…

Próximas Passagens (próximas 24 horas)

TLE

AtualizadoSource: CelesTrak SupGP

Época: Sep 14, 2026, 15:47 UTC

1 69216C 26115F   26257.65812500 -.00049613  00000+0 -15397-2 0  2576
2 69216  97.2837 273.7985 0001600 117.0203 205.9232 15.33471746    19

Acompanhe STARLINK-37766 em tempo real com AllMySat

Download on the App Store